2024/05/27 00:04 UPDATE
�s�[�N��������(��kW),���ԑ�,�����͏��X�V��,�����͏��X�V����,�s�[�N���\����(%),�s�[�N���g�p��(%)
624,19:00�`20:00,05��26��,22:40,11,90

�\�z�ő�d��(��kW),���ԑ�,�\�z�ő�d�͏��X�V��,�\�z�ő�d�͏��X�V����
563,19:00�`20:00,05��26��,22:40

�g�p���s�[�N��������(��kW),���ԑ�,�����͏��X�V��,�����͏��X�V����,�g�p���s�[�N���\����(%),�g�p���s�[�N���g�p��(%)
624,19:00�`20:00,05��26��,22:40,11,90

�g�p���s�[�N���\�z�d��(��kW),���ԑ�,�\�z�d�͏��X�V��,�\�z�d�͏��X�V����
563,19:00�`20:00,05��26��,22:40

DATE,TIME,��������(��kW),�\���l(��kW),�g�p��(%),������(��kW)
2024/5/26,0:00,454,453,90,503
2024/5/26,1:00,439,439,87,501
2024/5/26,2:00,454,459,88,514
2024/5/26,3:00,479,495,87,549
2024/5/26,4:00,508,515,88,576
2024/5/26,5:00,506,509,87,577
2024/5/26,6:00,481,480,87,550
2024/5/26,7:00,458,435,80,568
2024/5/26,8:00,451,448,68,660
2024/5/26,9:00,468,466,68,682
2024/5/26,10:00,485,482,70,688
2024/5/26,11:00,503,492,72,697
2024/5/26,12:00,513,495,74,690
2024/5/26,13:00,519,494,74,695
2024/5/26,14:00,506,502,74,676
2024/5/26,15:00,525,514,80,650
2024/5/26,16:00,537,540,83,646
2024/5/26,17:00,558,559,85,650
2024/5/26,18:00,568,555,90,627
2024/5/26,19:00,562,563,90,624
2024/5/26,20:00,547,544,86,632
2024/5/26,21:00,530,525,83,633
2024/5/26,22:00,507,496,89,564
2024/5/26,23:00,488,472,89,545

�ő�g�p��(%),���ԑ�
90,19:00�`20:00

�����̃s�[�N��������(��kW),���ԑ�,�����͏��X�V��,�����͏��X�V����,�s�[�N���\����(%),�s�[�N���g�p��(%)
775,14:00�`15:00,05��26��,23:41,16,86

�����̗\�z�ő�d��(��kW),���ԑ�,�\�z�ő�d�͏��X�V��,�\�z�ő�d�͏��X�V����
670,14:00�`15:00,05��26��,23:41

�����̎g�p���s�[�N��������(��kW),���ԑ�,�����͏��X�V��,�����͏��X�V����,�g�p���s�[�N���\����(%),�g�p���s�[�N���g�p��(%)
725,18:00�`19:00,05��26��,23:41,11,90

�����̎g�p���s�[�N���\�z�d��(��kW),���ԑ�,�\�z�d�͏��X�V��,�\�z�d�͏��X�V����
656,18:00�`19:00,05��26��,23:41

DATE,TIME,��������(�T���Ԋu�l)(��kW),���z�����d����(�T���Ԋu�l)(��kW)
2024/5/26,0:00,466,0
2024/5/26,0:05,461,0
2024/5/26,0:10,463,0
2024/5/26,0:15,459,0
2024/5/26,0:20,451,0
2024/5/26,0:25,446,0
2024/5/26,0:30,450,0
2024/5/26,0:35,453,0
2024/5/26,0:40,454,0
2024/5/26,0:45,445,0
2024/5/26,0:50,449,0
2024/5/26,0:55,450,0
2024/5/26,1:00,448,0
2024/5/26,1:05,448,0
2024/5/26,1:10,442,0
2024/5/26,1:15,441,0
2024/5/26,1:20,435,0
2024/5/26,1:25,430,0
2024/5/26,1:30,432,0
2024/5/26,1:35,432,0
2024/5/26,1:40,436,0
2024/5/26,1:45,438,0
2024/5/26,1:50,442,0
2024/5/26,1:55,446,0
2024/5/26,2:00,450,0
2024/5/26,2:05,449,0
2024/5/26,2:10,449,0
2024/5/26,2:15,444,0
2024/5/26,2:20,440,0
2024/5/26,2:25,445,0
2024/5/26,2:30,456,0
2024/5/26,2:35,461,0
2024/5/26,2:40,465,0
2024/5/26,2:45,465,0
2024/5/26,2:50,463,0
2024/5/26,2:55,464,0
2024/5/26,3:00,467,0
2024/5/26,3:05,469,0
2024/5/26,3:10,467,0
2024/5/26,3:15,467,0
2024/5/26,3:20,475,0
2024/5/26,3:25,476,0
2024/5/26,3:30,472,0
2024/5/26,3:35,482,0
2024/5/26,3:40,486,0
2024/5/26,3:45,493,0
2024/5/26,3:50,494,0
2024/5/26,3:55,494,0
2024/5/26,4:00,499,0
2024/5/26,4:05,500,0
2024/5/26,4:10,498,0
2024/5/26,4:15,505,0
2024/5/26,4:20,509,0
2024/5/26,4:25,511,0
2024/5/26,4:30,510,0
2024/5/26,4:35,512,0
2024/5/26,4:40,510,0
2024/5/26,4:45,513,0
2024/5/26,4:50,510,0
2024/5/26,4:55,519,0
2024/5/26,5:00,522,1
2024/5/26,5:05,518,1
2024/5/26,5:10,519,2
2024/5/26,5:15,512,4
2024/5/26,5:20,505,8
2024/5/26,5:25,502,11
2024/5/26,5:30,500,16
2024/5/26,5:35,502,22
2024/5/26,5:40,499,27
2024/5/26,5:45,502,33
2024/5/26,5:50,495,38
2024/5/26,5:55,494,45
2024/5/26,6:00,495,52
2024/5/26,6:05,493,60
2024/5/26,6:10,491,68
2024/5/26,6:15,483,77
2024/5/26,6:20,488,87
2024/5/26,6:25,491,97
2024/5/26,6:30,478,107
2024/5/26,6:35,469,117
2024/5/26,6:40,470,126
2024/5/26,6:45,472,136
2024/5/26,6:50,475,146
2024/5/26,6:55,468,157
2024/5/26,7:00,458,166
2024/5/26,7:05,460,177
2024/5/26,7:10,471,188
2024/5/26,7:15,466,200
2024/5/26,7:20,457,210
2024/5/26,7:25,465,222
2024/5/26,7:30,460,231
2024/5/26,7:35,452,243
2024/5/26,7:40,452,253
2024/5/26,7:45,456,264
2024/5/26,7:50,450,273
2024/5/26,7:55,450,283
2024/5/26,8:00,446,281
2024/5/26,8:05,443,291
2024/5/26,8:10,447,301
2024/5/26,8:15,445,307
2024/5/26,8:20,439,318
2024/5/26,8:25,446,327
2024/5/26,8:30,451,336
2024/5/26,8:35,457,345
2024/5/26,8:40,455,351
2024/5/26,8:45,457,361
2024/5/26,8:50,458,368
2024/5/26,8:55,463,377
2024/5/26,9:00,455,351
2024/5/26,9:05,461,346
2024/5/26,9:10,469,349
2024/5/26,9:15,464,353
2024/5/26,9:20,461,359
2024/5/26,9:25,464,365
2024/5/26,9:30,472,390
2024/5/26,9:35,474,397
2024/5/26,9:40,471,404
2024/5/26,9:45,474,410
2024/5/26,9:50,479,415
2024/5/26,9:55,475,421
2024/5/26,10:00,462,392
2024/5/26,10:05,475,392
2024/5/26,10:10,488,395
2024/5/26,10:15,490,396
2024/5/26,10:20,490,399
2024/5/26,10:25,482,404
2024/5/26,10:30,480,395
2024/5/26,10:35,479,393
2024/5/26,10:40,488,393
2024/5/26,10:45,492,395
2024/5/26,10:50,494,397
2024/5/26,10:55,498,398
2024/5/26,11:00,494,402
2024/5/26,11:05,499,402
2024/5/26,11:10,494,405
2024/5/26,11:15,497,407
2024/5/26,11:20,504,407
2024/5/26,11:25,503,408
2024/5/26,11:30,502,405
2024/5/26,11:35,505,403
2024/5/26,11:40,504,403
2024/5/26,11:45,511,402
2024/5/26,11:50,515,401
2024/5/26,11:55,513,403
2024/5/26,12:00,519,410
2024/5/26,12:05,518,412
2024/5/26,12:10,514,411
2024/5/26,12:15,509,411
2024/5/26,12:20,507,409
2024/5/26,12:25,511,407
2024/5/26,12:30,514,402
2024/5/26,12:35,509,402
2024/5/26,12:40,508,400
2024/5/26,12:45,510,395
2024/5/26,12:50,515,393
2024/5/26,12:55,520,389
2024/5/26,13:00,523,408
2024/5/26,13:05,523,408
2024/5/26,13:10,522,407
2024/5/26,13:15,516,405
2024/5/26,13:20,517,401
2024/5/26,13:25,522,396
2024/5/26,13:30,524,400
2024/5/26,13:35,523,399
2024/5/26,13:40,522,396
2024/5/26,13:45,511,392
2024/5/26,13:50,512,390
2024/5/26,13:55,510,384
2024/5/26,14:00,523,398
2024/5/26,14:05,524,398
2024/5/26,14:10,508,390
2024/5/26,14:15,509,382
2024/5/26,14:20,504,376
2024/5/26,14:25,502,372
2024/5/26,14:30,498,372
2024/5/26,14:35,499,367
2024/5/26,14:40,502,363
2024/5/26,14:45,498,356
2024/5/26,14:50,505,351
2024/5/26,14:55,504,348
2024/5/26,15:00,509,353
2024/5/26,15:05,516,353
2024/5/26,15:10,526,349
2024/5/26,15:15,529,344
2024/5/26,15:20,524,336
2024/5/26,15:25,526,325
2024/5/26,15:30,516,317
2024/5/26,15:35,527,306
2024/5/26,15:40,533,298
2024/5/26,15:45,531,289
2024/5/26,15:50,531,279
2024/5/26,15:55,528,269
2024/5/26,16:00,527,260
2024/5/26,16:05,534,251
2024/5/26,16:10,536,243
2024/5/26,16:15,542,233
2024/5/26,16:20,536,225
2024/5/26,16:25,532,217
2024/5/26,16:30,535,207
2024/5/26,16:35,542,196
2024/5/26,16:40,541,186
2024/5/26,16:45,534,175
2024/5/26,16:50,539,164
2024/5/26,16:55,540,152
2024/5/26,17:00,549,149
2024/5/26,17:05,554,141
2024/5/26,17:10,558,131
2024/5/26,17:15,558,121
2024/5/26,17:20,557,112
2024/5/26,17:25,563,103
2024/5/26,17:30,563,95
2024/5/26,17:35,561,87
2024/5/26,17:40,555,78
2024/5/26,17:45,555,71
2024/5/26,17:50,561,63
2024/5/26,17:55,556,56
2024/5/26,18:00,568,49
2024/5/26,18:05,572,42
2024/5/26,18:10,567,36
2024/5/26,18:15,567,30
2024/5/26,18:20,565,26
2024/5/26,18:25,568,21
2024/5/26,18:30,566,17
2024/5/26,18:35,568,14
2024/5/26,18:40,567,10
2024/5/26,18:45,570,7
2024/5/26,18:50,568,3
2024/5/26,18:55,565,1
2024/5/26,19:00,560,0
2024/5/26,19:05,568,0
2024/5/26,19:10,570,0
2024/5/26,19:15,570,0
2024/5/26,19:20,560,0
2024/5/26,19:25,563,0
2024/5/26,19:30,563,0
2024/5/26,19:35,562,0
2024/5/26,19:40,555,0
2024/5/26,19:45,563,0
2024/5/26,19:50,558,0
2024/5/26,19:55,556,0
2024/5/26,20:00,550,0
2024/5/26,20:05,547,0
2024/5/26,20:10,543,0
2024/5/26,20:15,547,0
2024/5/26,20:20,547,0
2024/5/26,20:25,553,0
2024/5/26,20:30,548,0
2024/5/26,20:35,549,0
2024/5/26,20:40,550,0
2024/5/26,20:45,547,0
2024/5/26,20:50,543,0
2024/5/26,20:55,538,0
2024/5/26,21:00,537,0
2024/5/26,21:05,533,0
2024/5/26,21:10,528,0
2024/5/26,21:15,538,0
2024/5/26,21:20,532,0
2024/5/26,21:25,532,0
2024/5/26,21:30,533,0
2024/5/26,21:35,530,0
2024/5/26,21:40,531,0
2024/5/26,21:45,523,0
2024/5/26,21:50,522,0
2024/5/26,21:55,519,0
2024/5/26,22:00,508,0
2024/5/26,22:05,503,0
2024/5/26,22:10,505,0
2024/5/26,22:15,512,0
2024/5/26,22:20,502,0
2024/5/26,22:25,514,0
2024/5/26,22:30,514,0
2024/5/26,22:35,511,0
2024/5/26,22:40,509,0
2024/5/26,22:45,513,0
2024/5/26,22:50,507,0
2024/5/26,22:55,491,0
2024/5/26,23:00,503,0
2024/5/26,23:05,506,0
2024/5/26,23:10,499,0
2024/5/26,23:15,492,0
2024/5/26,23:20,493,0
2024/5/26,23:25,484,0
2024/5/26,23:30,486,0
2024/5/26,23:35,476,0
2024/5/26,23:40,479,0
2024/5/26,23:45,479,0
2024/5/26,23:50,477,0
2024/5/26,23:55,480,0
